This demonstration page uses our WeatherBlox Daily Observations layout. Learn more.

Left ArrowRight Arrow

38.20091, -84.87328

Hourly Observations for July 7, 2019

Temp ( °F °C ) Dew Point ( °F °C ) Humidity (%) Winds ( mph kmh ) Pressure ( in mb ) Visibility ( mi km ) Precip ( " mm )
12:53 am 00:53 Clear 77 25 73 22.8 88 88 Calm 29.93 1014 9 14 0.00 0.00
1:53 am 01:53 Clear 76 24.4 73 22.8 91 91 NNW 3 6 29.92 1013 8 13 0.00 0.00
2:53 am 02:53 Clear 75 23.9 72 22.2 90 90 SSW 5 7 29.91 1013 7 11 0.00 0.00
3:53 am 03:53 Clear with Mist and Fog 74 23.3 72 22.2 94 94 Calm 29.90 1013 6 10 0.00 0.00
4:53 am 04:53 Clear with Mist and Fog 73 22.8 71 21.7 94 94 SW 3 6 29.91 1013 6 10 0.00 0.00
5:53 am 05:53 Clear with Mist and Fog 73 22.8 71 21.7 94 94 Calm 29.91 1013 4 6 0.00 0.00
6:53 am 06:53 Sunny with Mist and Fog 73 22.8 70 21.1 90 90 Calm 29.92 1013 4 6 0.00 0.00
7:53 am 07:53 Partly Cloudy with Mist and Fog 76 24.4 72 22.2 88 88 NNW 3 6 29.93 1013 5 8 0.00 0.00
8:53 am 08:53 Sunny 80 26.7 72 22.2 76 76 Calm 29.93 1014 10 16 0.00 0.00
9:53 am 09:53 Sunny 84 28.9 72 22.2 67 67 Calm 29.94 1014 10 16 0.00 0.00
10:53 am 10:53 Mostly Sunny 85 29.4 73 22.8 68 68 SW 3 6 29.94 1014 10 16 0.00 0.00
11:26 am 11:26 Mostly Cloudy 84 28.9 73 22.8 70 70 SW 6 9 29.93 1013 10 16 0.00 0.00
11:53 am 11:53 Mostly Cloudy 87 30.6 74 23.3 65 65 NW 5 7 29.93 1014 10 16 0.00 0.00
12:53 pm 12:53 Mostly Sunny 91 32.8 74 23.3 57 57 VRB 7 11 29.92 1013 10 16 0.00 0.00
1:53 pm 13:53 Mostly Sunny 91 32.8 71 21.7 52 52 VRB 7 11 29.90 1013 10 16 0.00 0.00
2:53 pm 14:53 Sunny 92 33.3 72 22.2 52 52 VRB 6 9 29.88 1012 10 16 0.00 0.00
3:53 pm 15:53 Partly Cloudy 93 33.9 71 21.7 49 49 NNE 7 11 29.88 1012 10 16 0.00 0.00
5:53 pm 17:53 Sunny 91 32.8 71 21.7 52 52 N 6 9 29.85 1011 10 16 0.00 0.00
6:53 pm 18:53 Mostly Sunny 92 33.3 70 21.1 49 49 NNW 7 11 29.85 1011 10 16 0.00 0.00
7:53 pm 19:53 Sunny 90 32.2 72 22.2 56 56 NNW 5 7 29.86 1011 10 16 0.00 0.00
8:53 pm 20:53 Sunny 86 30 72 22.2 63 63 Calm 29.86 1011 10 16 0.00 0.00
9:53 pm 21:53 Partly Cloudy 82 27.8 72 22.2 72 72 Calm 29.88 1012 10 16 0.00 0.00
10:53 pm 22:53 Partly Cloudy 83 28.3 71 21.7 67 67 N 5 7 29.89 1012 10 16 0.00 0.00
11:53 pm 23:53 Partly Cloudy 81 27.2 71 21.7 72 72 NNE 6 9 29.91 1013 10 16 0.00 0.00

Powered by AerisWeather